Tracking 35275 objects as of 8-Sep-2026
HD Live streaming from Space Station
objects crossing your sky now

COSMOS 864

Track COSMOS 864 now!
10-day predictions
COSMOS 864 is classified as:


NORAD ID: 9509
Int'l Code: 1976-108A
Launch date: October 29, 1976
Source: Commonwealth of Independent States (former USSR) (CIS)
Launch site: PLESETSK MISSILE AND SPACE COMPLEX (PKMTR)
Your satellite tracking list
Your tracking list is empty




NASA's NSSDC Master Catalog

Two Line Element Set (TLE):
1 09509U 76108A   26251.63065419  .00000059  00000-0  45297-4 0  9990
2 09509  82.9361  87.6869 0028517 271.8650 149.7654 13.75586126501916
Source of the keplerian elements: AFSPC